sat.trackr.live / text

‹ back to catalog

GSAT0206 (GALILEO 10)

NORAD 40890 · 2015-045B

PAYLOAD ACTIVE UNKNOWN

§ Identity

Operator
Country
ESA
Launch date
2015-09-11
Launch site
FRGUI
Launch vehicle
Mass (kg)
RCS (m²)
8.88

Purposes: earth_obs, nav

External: N2YO · Heavens-Above · Gunter

§ Orbital elements

Epoch: 2026-09-16T23:08:37.832928Z

Period
844.71 min
Inclination
54.9240°
Eccentricity
0.0002624
Mean motion
1.70473245 rev/d
Perigee alt
23,214.5 km
Apogee alt
23,230.0 km
Semi-major
29,600.4 km
B*
0.0000e+0
RAAN
219.0714°
Arg perigee
353.2075°
Mean anomaly
6.7586°
Rev number
6,860

§ Raw data

GSAT0206 (GALILEO 10)1 40890U 15045B   26259.96432677  .00000017  00000+0  00000+0 0  99902 40890  54.9240 219.0714 0002624 353.2075   6.7586  1.70473245 68605

JSON: /api/v1/satellites/40890 · /tle

For live sub-satellite position, see the globe view (requires WebGL).

§ Visibility from observer

Set your observer location to see the next 7 days of passes ≥ 10°. The values pass through the URL so the page stays shareable.

No JS? Fill the form by hand. The geolocation button needs JavaScript.